Time,TemperatureF,DewpointF,PressureIn,WindDirection,WindDirectionDegrees,WindSpeedMPH,WindSpeedGustMPH,Humidity,HourlyPrecipIn,Conditions,Clouds,dailyrainin,SoftwareType,DateUTC
2013-09-16 00:22:00,72.0,-99.9,29.72,SE,131,0.0,1.0,-999,-99.99,,,-99.99,,2013-09-16 07:22:00,
2013-09-16 00:52:00,71.0,-99.9,29.71,SE,130,1.0,2.0,-999,-99.99,,,-99.99,,2013-09-16 07:52:00,
2013-09-16 01:02:00,71.0,-99.9,29.71,SE,130,1.0,2.0,-999,-99.99,,,-99.99,,2013-09-16 08:02:00,
2013-09-16 01:22:00,71.0,-99.9,29.72,East,90,0.0,1.0,-999,-99.99,,,-99.99,,2013-09-16 08:22:00,
2013-09-16 01:52:00,70.0,-99.9,29.72,West,270,0.0,2.0,-999,-99.99,,,-99.99,,2013-09-16 08:52:00,
2013-09-16 02:22:00,70.0,-99.9,29.72,SE,124,1.0,2.0,-999,-99.99,,,-99.99,,2013-09-16 09:22:00,
2013-09-16 02:34:00,70.0,-99.9,29.72,SE,124,1.0,2.0,-999,-99.99,,,-99.99,,2013-09-16 09:34:00,
2013-09-16 02:53:00,69.0,-99.9,29.70,South,186,1.0,2.0,-999,-99.99,,,-99.99,,2013-09-16 09:53:00,
2013-09-16 03:03:00,69.0,-99.9,29.70,South,186,1.0,2.0,-999,-99.99,,,-99.99,,2013-09-16 10:03:00,
2013-09-16 03:13:00,69.0,-99.9,29.70,South,186,1.0,2.0,-999,-99.99,,,-99.99,,2013-09-16 10:13:00,
2013-09-16 03:23:00,69.0,-99.9,29.70,South,186,1.0,2.0,-999,-99.99,,,-99.99,,2013-09-16 10:23:00,
2013-09-16 03:53:00,69.0,-99.9,29.69,South,176,2.0,5.0,-999,-99.99,,,-99.99,,2013-09-16 10:53:00,
2013-09-16 04:22:00,68.0,-99.9,29.71,SSW,195,0.0,2.0,-999,-99.99,,,-99.99,,2013-09-16 11:22:00,
2013-09-16 04:52:00,68.0,-99.9,29.72,SW,225,0.0,2.0,-999,-99.99,,,-99.99,,2013-09-16 11:52:00,
2013-09-16 05:22:00,67.0,-99.9,29.73,ENE,68,0.0,2.0,-999,-99.99,,,-99.99,,2013-09-16 12:22:00,
2013-09-16 05:32:00,67.0,-99.9,29.73,ENE,68,0.0,2.0,-999,-99.99,,,-99.99,,2013-09-16 12:32:00,
2013-09-16 05:52:00,67.0,-99.9,29.75,East,90,0.0,1.0,-999,-99.99,,,-99.99,,2013-09-16 12:52:00,
2013-09-16 06:22:00,67.0,-99.9,29.74,SSE,158,0.0,1.0,-999,-99.99,,,-99.99,,2013-09-16 13:22:00,
2013-09-16 06:53:00,67.0,-99.9,29.74,ESE,118,0.0,2.0,-999,-99.99,,,-99.99,,2013-09-16 13:53:00,
2013-09-16 07:22:00,67.0,-99.9,29.73,SSW,203,0.0,2.0,-999,-99.99,,,-99.99,,2013-09-16 14:22:00,
2013-09-16 07:52:00,67.0,-99.9,29.73,SSE,158,2.0,2.0,-999,-99.99,,,-99.99,,2013-09-16 14:52:00,
2013-09-16 08:22:00,68.0,-99.9,29.72,SSE,157,2.0,3.0,-999,-99.99,,,-99.99,,2013-09-16 15:22:00,
2013-09-16 08:53:00,70.0,-99.9,29.72,NNW,339,1.0,5.0,-999,-99.99,,,-99.99,,2013-09-16 15:53:00,
2013-09-16 09:12:00,70.0,-99.9,29.72,NW,322,1.0,2.0,-999,-99.99,,,-99.99,,2013-09-16 16:12:00,
2013-09-16 09:23:00,70.0,-99.9,29.72,NW,322,1.0,2.0,-999,-99.99,,,-99.99,,2013-09-16 16:23:00,
2013-09-16 09:33:00,70.0,-99.9,29.72,NW,322,1.0,2.0,-999,-99.99,,,-99.99,,2013-09-16 16:33:00,
2013-09-16 09:52:00,73.0,-99.9,29.74,WNW,298,2.0,5.0,-999,-99.99,,,-99.99,,2013-09-16 16:52:00,
2013-09-16 10:23:00,75.0,-99.9,29.72,NNW,327,2.0,7.0,-999,-99.99,,,-99.99,,2013-09-16 17:23:00,
2013-09-16 10:33:00,75.0,-99.9,29.72,NNW,327,2.0,7.0,-999,-99.99,,,-99.99,,2013-09-16 17:33:00,
2013-09-16 10:53:00,76.0,-99.9,29.75,WSW,246,4.0,6.0,-999,-99.99,,,-99.99,,2013-09-16 17:53:00,
2013-09-16 11:12:00,78.0,-99.9,29.75,West,275,4.0,7.0,-999,-99.99,,,-99.99,,2013-09-16 18:12:00,
2013-09-16 11:22:00,78.0,-99.9,29.75,West,275,4.0,7.0,-999,-99.99,,,-99.99,,2013-09-16 18:22:00,
2013-09-16 11:52:00,82.0,-99.9,29.73,WNW,291,4.0,8.0,-999,-99.99,,,-99.99,,2013-09-16 18:52:00,
2013-09-16 12:22:00,84.0,-99.9,29.74,WSW,254,5.0,13.0,-999,-99.99,,,-99.99,,2013-09-16 19:22:00,
2013-09-16 12:53:00,85.0,-99.9,29.73,SSW,205,5.0,12.0,-999,-99.99,,,-99.99,,2013-09-16 19:53:00,
2013-09-16 13:11:00,86.0,-99.9,29.74,SSW,213,5.0,11.0,-999,-99.99,,,-99.99,,2013-09-16 20:11:00,
2013-09-16 13:22:00,86.0,-99.9,29.74,SSW,213,5.0,11.0,-999,-99.99,,,-99.99,,2013-09-16 20:22:00,
2013-09-16 13:52:00,89.0,-99.9,29.68,SSW,207,6.0,11.0,-999,-99.99,,,-99.99,,2013-09-16 20:52:00,
2013-09-16 14:22:00,88.0,-99.9,29.68,SSW,203,5.0,13.0,-999,-99.99,,,-99.99,,2013-09-16 21:22:00,
2013-09-16 14:34:00,88.0,-99.9,29.68,SSW,203,5.0,13.0,-999,-99.99,,,-99.99,,2013-09-16 21:34:00,
2013-09-16 14:56:00,89.0,-99.9,29.67,WSW,253,6.0,12.0,-999,-99.99,,,-99.99,,2013-09-16 21:56:00,
2013-09-16 15:04:00,89.0,-99.9,29.67,WSW,253,6.0,12.0,-999,-99.99,,,-99.99,,2013-09-16 22:04:00,
2013-09-16 15:25:00,89.0,-99.9,29.65,WSW,249,8.0,14.0,-999,-99.99,,,-99.99,,2013-09-16 22:25:00,
2013-09-16 15:33:00,89.0,-99.9,29.65,WSW,249,8.0,14.0,-999,-99.99,,,-99.99,,2013-09-16 22:33:00,
2013-09-16 15:54:00,89.0,-99.9,29.64,SW,228,6.0,12.0,-999,-99.99,,,-99.99,,2013-09-16 22:54:00,
2013-09-16 16:22:00,88.0,-99.9,29.65,West,274,6.0,10.0,-999,-99.99,,,-99.99,,2013-09-16 23:22:00,
2013-09-16 16:53:00,88.0,-99.9,29.66,WNW,298,6.0,11.0,-999,-99.99,,,-99.99,,2013-09-16 23:53:00,
2013-09-16 17:22:00,87.0,-99.9,29.66,West,275,5.0,13.0,-999,-99.99,,,-99.99,,2013-09-17 00:22:00,
2013-09-16 17:32:00,87.0,-99.9,29.66,West,275,5.0,13.0,-999,-99.99,,,-99.99,,2013-09-17 00:32:00,
2013-09-16 17:52:00,85.0,-99.9,29.66,WNW,282,3.0,12.0,-999,-99.99,,,-99.99,,2013-09-17 00:52:00,
2013-09-16 18:22:00,84.0,-99.9,29.65,West,280,3.0,6.0,-999,-99.99,,,-99.99,,2013-09-17 01:22:00,
2013-09-16 18:32:00,84.0,-99.9,29.65,West,280,3.0,6.0,-999,-99.99,,,-99.99,,2013-09-17 01:32:00,
2013-09-16 18:52:00,82.0,-99.9,29.66,NW,315,2.0,6.0,-999,-99.99,,,-99.99,,2013-09-17 01:52:00,
2013-09-16 19:03:00,82.0,-99.9,29.66,NW,315,2.0,6.0,-999,-99.99,,,-99.99,,2013-09-17 02:03:00,
2013-09-16 19:22:00,81.0,-99.9,29.66,WNW,301,2.0,4.0,-999,-99.99,,,-99.99,,2013-09-17 02:22:00,
2013-09-16 19:53:00,79.0,-99.9,29.67,WNW,298,2.0,4.0,-999,-99.99,,,-99.99,,2013-09-17 02:53:00,
2013-09-16 20:23:00,78.0,-99.9,29.69,WNW,292,2.0,5.0,-999,-99.99,,,-99.99,,2013-09-17 03:23:00,
2013-09-16 20:54:00,77.0,-99.9,29.68,NW,307,2.0,4.0,-999,-99.99,,,-99.99,,2013-09-17 03:54:00,
2013-09-16 21:05:00,77.0,-99.9,29.68,NW,307,2.0,4.0,-999,-99.99,,,-99.99,,2013-09-17 04:05:00,
2013-09-16 22:23:00,74.0,-99.9,29.74,SW,217,1.0,2.0,-999,-99.99,,,-99.99,,2013-09-17 05:23:00,
2013-09-16 22:34:00,74.0,-99.9,29.74,SW,217,1.0,2.0,-999,-99.99,,,-99.99,,2013-09-17 05:34:00,
2013-09-16 22:52:00,73.0,-99.9,29.73,SE,129,3.0,5.0,-999,-99.99,,,-99.99,,2013-09-17 05:52:00,
2013-09-16 23:02:00,73.0,-99.9,29.73,SE,129,3.0,5.0,-999,-99.99,,,-99.99,,2013-09-17 06:02:00,
2013-09-16 23:12:00,73.0,-99.9,29.73,SE,129,3.0,5.0,-999,-99.99,,,-99.99,,2013-09-17 06:12:00,
2013-09-16 23:22:00,73.0,-99.9,29.76,SSE,160,2.0,4.0,-999,-99.99,,,-99.99,,2013-09-17 06:22:00,
2013-09-16 23:32:00,73.0,-99.9,29.76,SSE,160,2.0,4.0,-999,-99.99,,,-99.99,,2013-09-17 06:32:00,
2013-09-16 23:52:00,72.0,-99.9,29.75,ESE,118,2.0,3.0,-999,-99.99,,,-99.99,,2013-09-17 06:52:00,